Flag for United Kingdom Weather past 2 weeks in Guildford, England, United Kingdom

Now
45 °F

Low clouds.


Feels Like: 40 °F
Forecast: 45 / 65 °F
Wind: 9 mph from North

Location: Odiham


UV Index: 3 (Moderate)

Visibility: 3 mi


Pressure: 29.83 "Hg

Humidity: 87%

Dew point: 41 °F

Location of GuildfordLocation

Historic Weather in Guildford

°F

Guildford temperature yesterday

Maximum temperature yesterday: 54 °F (at 1:50 PM)
Minimum temperature yesterday: 32 °F (at 5:50 AM)
Average temperature yesterday: 45 °F

Past Weeks' High & Low Weather Summary

 TemperatureHumidityPressure
High61 °F (Apr 17, 12:50 PM)100% (Apr 5, 4:50 AM)30.42 "Hg (Apr 5, 4:50 AM)
Low32 °F (Apr 19, 5:50 AM)23% (Apr 16, 6:50 PM)29.65 "Hg (Apr 7, 5:50 PM)
Average49 °F75%30.11 "Hg
* Reported Apr 5 4:50 AM — Apr 20 3:50 AM, Guildford, Weather by CustomWeather, © 2014

Note: Actual official high and low records may vary slightly from our data, if they occured in-between our weather recording intervals... More about our weather records

Advertising

Historic Weather Conditions — Data for Previous 24 hours

 ConditionsComfort  
Time TempWeatherWind HumidityBarometerVisibility
3:50 AM
Apr 20
45 °FLow clouds.9 mph87%29.83 "Hg3 mi
2:50 AM43 °FLow clouds.13 mph87%29.86 "HgN/A
12:50 AM43 °FClear.10 mph81%29.92 "Hg10 mi
11:50 PM
Apr 19
43 °FPassing clouds.10 mph81%29.95 "HgN/A
10:50 PM45 °FPassing clouds.7 mph76%29.98 "HgN/A
9:50 PM45 °FPassing clouds.9 mph76%29.98 "HgN/A
8:50 PM46 °FPassing clouds.10 mph71%29.98 "HgN/A
7:50 PM50 °FPassing clouds.12 mph58%29.98 "HgN/A
6:50 PM52 °FSunny.12 mph54%29.98 "Hg10 mi
5:50 PM54 °FScattered clouds.14 mph47%29.98 "HgN/A
4:50 PM52 °FScattered clouds.9 mph54%29.98 "HgN/A
3:50 PM54 °FScattered clouds.10 mph54%30.01 "HgN/A
2:50 PM52 °FScattered clouds.10 mph54%30.04 "HgN/A
1:50 PM54 °FScattered clouds.9 mph44%30.04 "HgN/A
12:50 PM52 °FPartly sunny.9 mph47%30.04 "HgN/A
11:50 AM48 °FScattered clouds.9 mph58%30.07 "HgN/A
10:50 AM50 °FScattered clouds.10 mph54%30.07 "HgN/A
9:50 AM48 °FScattered clouds.14 mph58%30.07 "HgN/A
8:50 AM45 °FPassing clouds.12 mph66%30.07 "HgN/A
7:50 AM39 °FPartly sunny.6 mph81%30.07 "HgN/A
6:50 AM36 °FPassing clouds.3 mph87%30.09 "HgN/A
5:50 AM32 °FPassing clouds.1 mph87%30.07 "HgN/A
4:50 AM34 °FPassing clouds.3 mph93%30.07 "HgN/A
Weather by CustomWeather, © 2014

See weather overview